This is the latest recevied weather packets stored in our database for station/object EA5DFV. If no packets are shown the sender has not sent any weather packets the latest 1 day(s).
| Time | Temp. | Humidity | Pressure | Rain* | Wind** | Luminosity | Snow |
|---|---|---|---|---|---|---|---|
| 1778029718 | 17.22° C | 82% | 1010.7 hPa | 0 mm | 0 m/s | 0 W/m² | - |
| 1778029409 | 17.22° C | 82% | 1010.7 hPa | 0 mm | 0.45 m/s, 312° | 0 W/m² | - |
| 1778029102 | 17.22° C | 82% | 1010.7 hPa | 0 mm | 0.45 m/s, 288° | 0 W/m² | - |
| 1778028813 | 17.22° C | 82% | 1010.8 hPa | 0 mm | 0.45 m/s, 288° | 0 W/m² | - |
| 1778028506 | 17.78° C | 82% | 1010.7 hPa | 0 mm | 0.45 m/s, 288° | 0 W/m² | - |
| 1778028200 | 17.78° C | 82% | 1010.8 hPa | 0 mm | 0.89 m/s, 299° | 0 W/m² | - |
| 1778027911 | 17.78° C | 82% | 1010.7 hPa | 0 mm | 0 m/s | 0 W/m² | - |
| 1778027602 | 17.78° C | 82% | 1010.7 hPa | 0 mm | 0.89 m/s, 272° | 0 W/m² | - |
| 1778027312 | 17.78° C | 82% | 1010.7 hPa | 0 mm | 0.89 m/s, 264° | 0 W/m² | - |
| 1778027005 | 17.78° C | 82% | 1010.8 hPa | 0 mm | 0.45 m/s, 299° | 0 W/m² | - |
| 1778026698 | 17.78° C | 82% | 1010.9 hPa | 0 mm | 0.45 m/s, 269° | 0 W/m² | - |
| 1778026412 | 17.78° C | 82% | 1010.9 hPa | 0 mm | 0.45 m/s, 342° | 0 W/m² | - |
| 1778026105 | 17.78° C | 81% | 1010.9 hPa | 0 mm | 0.89 m/s, 313° | 0 W/m² | - |
| 1778025803 | 17.78° C | 81% | 1011 hPa | 0 mm | 0.45 m/s, 279° | 0 W/m² | - |
| 1778025513 | 17.22° C | 80% | 1011 hPa | 0 mm | 0.89 m/s, 246° | 0 W/m² | - |
| 1778025204 | 17.22° C | 80% | 1011 hPa | 0 mm | 0.89 m/s, 242° | 0 W/m² | - |
| 1778024914 | 17.22° C | 80% | 1011 hPa | 0 mm | 0.45 m/s, 242° | 0 W/m² | - |
| 1778024608 | 17.22° C | 80% | 1010.9 hPa | 0 mm | 1.34 m/s, 234° | 0 W/m² | - |
| 1778024319 | 17.22° C | 79% | 1010.9 hPa | 0 mm | 0.89 m/s, 234° | 0 W/m² | - |
| 1778024009 | 17.22° C | 79% | 1010.8 hPa | 0 mm | 1.79 m/s, 257° | 0 W/m² | - |
| 1778023706 | 17.22° C | 79% | 1010.7 hPa | 0 mm | 1.79 m/s, 252° | 0 W/m² | - |
| 1778023400 | 17.22° C | 79% | 1010.7 hPa | 0 mm | 0.89 m/s, 251° | 0 W/m² | - |
| 1778023113 | 17.22° C | 79% | 1010.7 hPa | 0 mm | 0.89 m/s, 252° | 0 W/m² | - |
| 1778022806 | 17.22° C | 79% | 1010.7 hPa | 0 mm | 0.45 m/s, 252° | 0 W/m² | - |
| 1778022500 | 17.22° C | 79% | 1010.6 hPa | 0 mm | 1.34 m/s, 249° | 0 W/m² | - |
* Rain latest hour (hover to see other rain measurements)
** Current wind speed in m/s (hover to see current wind gust speed)